Location: Duran
(43.6684°N, 0.5650°E)
Time: 17:58:45
(UTC+00:00)

Daily predictions for brighter satellites

Satellite Brightness Start Highest point End
(mag) Time Altitude Azimuth Time Altitude Azimuth Time Altitude Azimuth
CZ-2C R/B 4.3 19:52:27 10° S 19:57:39 48° W 20:03:09 10° NNW
STARLINK-1092 4.2 19:54:48 10° NW 19:58:51 51° NNE 20:02:54 10° ESE
ASTEX 1 3.4 19:54:04 10° S 19:58:56 84° E 20:03:52 10° N
Okean 1-7 3.2 19:55:00 10° S 19:59:09 51° E 20:03:17 10° NNE
Cosmos 1515 4.4 19:57:15 10° SSE 20:00:44 35° E 20:04:13 10° NNE
STARLINK-1205 3.6 19:56:44 10° SW 20:00:52 87° SE 20:05:01 10° NE
STARLINK-1171 4.5 19:57:38 10° WNW 20:01:33 42° SW 20:05:29 10° SSE
Okean 1 3.3 19:58:47 10° S 20:02:47 67° E 20:06:49 10° NNE
STARLINK-1080 4.1 19:59:50 10° NW 20:03:55 55° NNE 20:07:59 10° ESE
Meteor 1-19 Rocket 4.5 19:59:44 10° SSE 20:05:07 51° E 20:10:42 10° NNE
STARLINK-1218 3.7 20:01:42 10° SW 20:05:50 87° NW 20:10:00 10° NE
MOS 1 Rocket 3.2 20:03:46 10° N 20:08:14 82° WNW 20:12:30 10° SSW
STARLINK-1090 4.0 20:04:46 10° NW 20:08:53 59° NNE 20:12:59 10° ESE
STARLINK-1254 3.8 20:06:41 10° WSW 20:10:49 81° NW 20:14:59 10° NE
Cosmos 2056 Rocket 3.5 20:06:02 10° S 20:11:02 60° ESE 20:16:05 10° NNE
DMSP B5D2-2 4.1 20:05:47 10° NNE 20:11:07 84° ESE 20:16:24 10° SSW
Cosmos 389 Rocket 2.8 20:09:49 10° SSW 20:13:15 69° W 20:16:46 10° N
STARLINK-1089 3.9 20:09:44 10° NW 20:13:52 63° NNE 20:17:58 10° ESE
NOSS 2-3 (E) 3.6 20:10:19 10° SW 20:14:32 87° ESE 20:19:29 10° NE
Cosmos 1544 3.4 20:11:47 10° N 20:15:19 46° ENE 20:18:48 10° SSE
STARLINK-1231 3.9 20:11:39 10° WSW 20:15:47 75° NNW 20:19:56 10° NE
STARLINK-1246 4.4 20:14:44 10° SSW 20:18:19 29° SE 20:21:54 10° ENE
STARLINK-1087 4.3 20:17:20 10° W 20:18:26 14° SW 20:19:32 10° S
Cosmos 1356 3.4 20:15:08 10° N 20:18:36 78° E 20:22:02 10° SSE
STARLINK-1107 3.8 20:14:42 10° NW 20:18:50 68° NNE 20:22:53 10° ESE
Meteor 1-18 Rocket 4.2 20:13:54 10° S 20:19:27 80° E 20:25:07 10° NNE
CZ-2C R/B 3.9 20:15:28 10° N 20:19:56 77° WNW 20:24:27 10° SSW
STARLINK-1232 4.0 20:16:40 10° WSW 20:20:47 70° NNW 20:24:56 10° NE
STARLINK-1224 4.3 20:19:34 10° SSW 20:23:15 31° SE 20:26:56 10° ENE
STARLINK-1066 3.7 20:19:42 10° NW 20:23:52 73° NNE 20:27:42 12° ESE
STARLINK-1208 4.1 20:21:40 10° WSW 20:25:46 65° NNW 20:29:54 10° NE
Cosmos 2221 Rocket 4.3 20:21:49 10° SSE 20:25:55 36° E 20:30:05 10° NNE
COSMOS 2406 3.3 20:21:54 10° NNW 20:27:41 74° ENE 20:33:08 11° SSE
STARLINK-1225 4.2 20:24:25 10° SSW 20:28:11 34° SE 20:31:58 10° ENE
STARLINK-1081 3.7 20:24:39 10° NW 20:28:49 79° NE 20:32:27 13° ESE
USA 245 4.0 20:27:16 13° SE 20:29:43 27° ENE 20:32:14 10° NNE
Cosmos 909 Rocket 4.4 20:22:36 10° NW 20:30:30 81° WSW 20:36:50 11° SSE
Meteor 2-4 Rocket 3.8 20:25:26 10° S 20:30:37 51° E 20:35:47 10° NNE
STARLINK-1271 4.3 20:26:40 10° WSW 20:30:46 60° NNW 20:34:52 10° NE
STARLINK-1230 4.1 20:29:19 10° SSW 20:33:08 38° SE 20:36:58 10° ENE
ATLAS 3B CENTAUR R/B 4.3 20:24:34 10° SW 20:33:37 21° S 20:38:13 13° SE
STARLINK-1070 3.6 20:29:37 10° NW 20:33:47 85° NE 20:37:14 15° ESE
Cosmos 1782 Rocket 3.7 20:29:44 10° N 20:34:14 81° W 20:38:42 10° S
NOSS 2-3 (D) 4.0 20:30:26 10° SW 20:34:40 68° NW 20:39:37 10° NNE
STARLINK-1154 4.4 20:31:39 10° WSW 20:35:44 56° NNW 20:39:49 10° NE
Resurs 01 Rocket 1.7 20:32:34 10° S 20:37:01 80° WSW 20:41:30 10° NNW
STARLINK-1243 4.0 20:34:12 10° SSW 20:38:06 41° SE 20:42:01 10° ENE
STARLINK-1069 3.6 20:34:37 10° NW 20:38:47 89° SW 20:42:01 16° SE
Sich 1 Rocket 3.6 20:34:51 10° N 20:39:27 75° E 20:43:48 11° SSE
Cosmos 1703 Rocket 4.5 20:35:24 10° SSW 20:39:35 49° WNW 20:43:49 10° N
NOSS 3 (A) 4.2 20:37:09 10° SSW 20:39:48 76° ESE 20:42:38 10° NE
Cosmos 407 Rocket 4.1 20:36:30 10° NNW 20:41:45 58° WSW 20:46:58 10° S
Cosmos 1452 Rocket 4.0 20:36:55 10° S 20:41:48 40° ESE 20:46:43 10° NE
STARLINK-1236 3.9 20:39:07 10° SSW 20:43:04 45° SE 20:47:03 10° ENE
STARLINK-1085 3.6 20:39:36 10° WNW 20:43:46 82° SW 20:46:49 18° SE
Abrixas rocket 3.8 20:42:31 10° WNW 20:45:12 30° N 20:47:53 10° ENE
Cosmos 1420 Rocket 4.0 20:40:20 10° S 20:45:28 63° ESE 20:50:36 10° NNE
GPS 2-04 Rocket1 4.1 20:44:38 10° SSW 20:47:00 17° SSE 20:47:11 17° SSE
ERBS 2.2 20:43:52 10° SW 20:47:10 88° NNW 20:50:29 10° NE
STARLINK-1086 3.6 20:44:35 10° WNW 20:48:44 76° SW 20:51:36 19° SE
Okean 2 Rocket 3.2 20:47:14 10° N 20:51:38 61° E 20:54:51 18° SSE
Cosmos 2279 Rocket 4.2 20:45:57 10° N 20:52:07 59° ENE 20:57:04 16° SSE
STARLINK-1269 3.7 20:48:55 10° SW 20:52:57 54° SE 20:57:01 10° ENE
STARLINK-1095 3.7 20:49:34 10° WNW 20:53:42 69° SW 20:56:23 21° SE
NOSS 3-1 (A) 4.4 20:49:37 10° WSW 20:54:59 49° NW 21:01:13 10° NNE
STARLINK-1200 3.6 20:53:53 10° SW 20:57:57 60° SE 21:02:02 10° ENE
Cosmos 2082 Rocket 2.6 20:52:26 10° NNW 20:58:01 52° ENE 21:01:58 19° SE
CZ-2C R/B 4.0 20:53:21 10° N 20:58:37 43° WNW 21:03:52 10° SW
STARLINK-1077 3.8 20:54:32 10° WNW 20:58:39 64° SW 21:01:09 22° SE
SL-4 R/B 1.9 20:56:46 10° NNW 20:59:47 42° NE 21:01:02 26° ESE
Cosmos 1833 Rocket 2.7 20:54:32 10° NNW 21:00:12 84° ENE 21:04:19 19° SSE
Okean 1 Rocket 4.4 20:57:33 10° NNE 21:01:17 25° ENE 21:03:19 18° ESE
STARLINK-1192 3.5 20:58:50 10° SW 21:02:56 65° SE 21:07:02 10° ENE
STARLINK-1075 3.9 20:59:34 10° WNW 21:03:38 58° SW 21:05:57 24° SSE
GENESIS II 4.4 21:00:57 10° NW 21:04:57 65° WSW 21:07:15 23° SSE
Cosmos 2151 Rocket 3.8 21:00:53 10° N 21:05:23 60° E 21:08:08 23° SSE
Cosmos 1140 Rocket 4.3 21:02:14 10° NNW 21:07:11 45° WSW 21:11:49 12° S
IGS 5A 3.4 21:04:41 21° SSE 21:07:26 82° ENE 21:11:37 10° N
STARLINK-1244 3.5 21:03:46 10° SW 21:07:54 71° SE 21:12:02 10° ENE
STARLINK-1093 4.0 21:04:33 10° WNW 21:08:36 53° SW 21:10:43 25° SSE
Cosmos 1943 Rocket 3.8 21:09:28 14° ESE 21:10:01 15° E 21:12:56 10° ENE
Cosmos 1634 Rocket 4.4 21:04:26 10° NNW 21:10:40 65° W 21:16:55 10° S
Cosmos 2369 Rocket 4.2 21:10:40 10° E 21:10:46 10° E 21:11:27 10° E
STARLINK-1071 4.4 21:06:50 10° NW 21:10:51 47° NNE 21:13:47 17° E
Terra 2.8 21:09:16 20° ESE 21:11:46 34° ENE 21:16:02 10° N
STARLINK-1138 3.5 21:08:43 10° SW 21:12:50 78° SE 21:17:00 10° ENE
SPOT 1/Viking Rocket 3.5 21:09:30 20° SSE 21:13:05 78° ENE 21:18:16 10° N
STARLINK-1074 4.1 21:09:33 10° WNW 21:13:34 48° SW 21:15:30 26° SSE
ISS -3.0 21:10:25 10° NW 21:13:42 47° NNE 21:15:34 22° E
Okean 3 3.9 21:09:55 10° SSW 21:14:10 63° W 21:18:28 10° N
STARLINK-1110 4.3 21:10:51 10° NW 21:14:54 49° NNE 21:17:39 19° E
Cosmos 1741 Rocket 4.3 21:11:28 10° NNW 21:16:36 54° ENE 21:19:31 25° SE
Crew Dragon 1.4 21:15:24 10° NW 21:17:27 33° NNE 21:17:56 29° NE
STARLINK-1143 3.5 21:13:40 10° SW 21:17:48 84° SE 21:21:58 10° NE
SeaSat 1 4.1 21:15:11 10° ENE 21:18:10 16° ESE 21:18:10 16° ESE
CARTOSAT-1 3.7 21:18:14 27° SE 21:20:24 60° ENE 21:24:40 10° N
Cosmos 1066 Rocket 4.5 21:17:31 23° SSE 21:20:34 46° E 21:25:40 10° NNE
STARLINK-1124 4.2 21:16:46 10° NW 21:20:49 53° NNE 21:23:19 22° E
Cosmos 1461 3.3 21:19:52 28° SSE 21:21:27 40° ESE 21:25:28 10° NE
STARLINK-1241 3.5 21:18:40 10° SW 21:22:48 89° NNW 21:26:58 10° NE
Cosmos 371 Rocket 3.3 21:17:58 10° SSW 21:22:49 86° WNW 21:27:43 10° NNE
ERS-1 Rocket 3.0 21:20:07 25° SSE 21:23:03 71° ENE 21:28:05 10° N
STARLINK-1088 4.4 21:19:35 10° WNW 21:23:29 40° SW 21:25:04 28° S
STARLINK-1203 3.6 21:20:30 10° SW 21:24:42 86° NW 21:28:56 10° NE
STARLINK-1122 4.0 21:21:44 10° NW 21:25:50 57° NNE 21:28:06 24° E
Lacrosse 5 1.8 21:21:02 10° NW 21:26:07 81° NE 21:28:52 27° SE
STARLINK-1239 3.6 21:23:37 10° WSW 21:27:45 83° NW 21:31:55 10° NE
STARLINK-1115 4.5 21:24:36 10° WNW 21:28:26 37° SW 21:29:51 28° S
Cosmos 1850 Rocket 4.1 21:23:26 10° NNW 21:28:48 73° ENE 21:31:37 29° SSE
Cosmos 2278 Rocket 3.1 21:24:48 10° SW 21:30:18 50° WNW 21:35:50 10° NNE
STARLINK-1126 3.9 21:26:31 10° NW 21:30:38 61° NNE 21:32:43 27° ESE
STARLINK-1240 3.7 21:28:38 10° WSW 21:32:46 77° NNW 21:36:56 10° NE
Cosmos 1110 Rocket 4.3 21:31:28 28° SSE 21:33:40 45° ESE 21:38:36 10° NNE
STARLINK-1082 3.8 21:31:40 10° NW 21:35:48 66° NNE 21:37:39 31° ESE
Spot 2 Rocket 4.3 21:33:22 16° SSW 21:37:04 45° W 21:41:54 10° NNW
STARLINK-1216 3.8 21:33:36 10° WSW 21:37:44 72° NNW 21:41:53 10° NE
Meteor 1-15 Rocket 4.3 21:32:13 10° N 21:38:10 74° E 21:41:20 29° SSE
Cosmos 1300 Rocket 4.4 21:35:21 10° NNW 21:39:37 46° W 21:42:24 20° SSW
STARLINK-1100 3.7 21:36:40 10° NW 21:40:48 71° NNE 21:42:28 35° ESE
STARLINK-1237 4.0 21:38:36 10° WSW 21:42:43 66° NNW 21:46:51 10° NE
Cosmos 1437 Rocket 3.1 21:43:32 24° SSW 21:45:38 60° WNW 21:49:23 10° N
STARLINK-1083 3.6 21:41:37 10° NW 21:45:46 77° NNE 21:47:14 39° ESE
STARLINK-1202 4.1 21:43:37 10° WSW 21:47:43 62° NNW 21:51:51 10° NE
STARLINK-1125 3.6 21:46:35 10° NW 21:50:45 83° NE 21:52:01 44° ESE
Cosmos 1331 Rocket 4.0 21:52:17 34° S 21:54:23 62° ESE 21:59:30 10° NNE
Cosmos 1674 Rocket 4.0 21:52:50 22° SSW 21:55:28 57° W 21:59:49 10° N
STARLINK-1109 3.5 21:51:35 10° NW 21:55:44 89° NE 21:56:48 49° SE
Cosmos 972 Rocket 4.4 21:51:34 21° SSW 21:55:50 85° ESE 22:02:36 10° NNE
Aureole 2 Rocket 2.1 21:56:36 74° SW 21:56:48 81° WNW 21:59:53 10° NNE
STARLINK-1246 4.4 21:53:39 10° WSW 21:57:42 53° NNW 22:01:47 10° NE
Okean 2 3.9 21:57:29 40° ESE 21:57:49 41° E 22:01:45 10° NNE
STARLINK-1091 3.5 21:56:32 10° NW 22:00:42 85° SW 22:01:34 55° SE
SPOT 5 3.3 21:58:24 30° S 22:00:52 62° W 22:06:09 10° NNW
Cosmos 1378 Rocket 3.8 21:58:46 29° SSW 22:00:55 66° W 22:05:19 10° N
BREEZE-M DEB (TANK) 3.8 21:48:58 10° WNW 22:01:56 88° NNE 22:04:24 31° ESE
SL-8 R/B 4.4 21:57:31 10° WNW 22:02:14 54° N 22:06:01 16° E
Cosmos 304 Rocket 3.9 22:01:09 23° SSW 22:04:09 73° WNW 22:08:57 10° NNE
STARLINK-1072 3.5 22:01:32 10° WNW 22:05:41 78° SW 22:06:22 60° SSE
Cosmos 1766 3.2 22:05:47 10° N 22:09:45 68° E 22:10:13 61° SE
STARLINK-1096 3.5 22:06:32 10° WNW 22:10:39 72° SW 22:11:09 63° SSE
Cosmos 1733 3.4 22:07:10 10° N 22:10:56 52° E 22:11:07 51° E
BREEZE-M DEB (TANK) 4.0 21:54:41 10° WSW 22:12:40 82° NNW 22:16:55 10° ENE
Cosmos 2026 Rocket 4.2 22:11:35 37° SSE 22:13:55 58° E 22:20:07 10° NNE
Cosmos 1975 Rocket 3.1 22:14:27 53° SE 22:15:05 59° E 22:19:28 10° NNE
STARLINK-1079 3.5 22:11:32 10° WNW 22:15:38 66° SW 22:15:56 63° SSW
EXPRESS MD2 4.1 22:16:38 10° WSW 22:20:16 71° NNW 22:27:43 10° ENE
STARLINK-1116 3.6 22:16:30 10° WNW 22:20:35 60° SW 22:20:42 60° SSW
Abrixas rocket 3.0 22:18:14 10° WNW 22:20:46 44° N 22:20:46 44° N
SL-27 R/B 3.9 22:19:34 10° N 22:22:44 28° ENE 22:22:47 28° ENE
USA 215 3.9 22:18:24 13° E 22:23:59 51° NNE 22:30:17 10° NW
STARLINK-1101 4.5 22:23:48 10° NW 22:27:49 46° NNE 22:29:17 32° ENE
Cosmos 1953 4.4 22:26:42 10° NNE 22:29:16 16° ENE 22:29:31 16° ENE
Cosmos 2297 4.3 22:25:02 14° SW 22:29:54 56° WNW 22:35:33 10° NNE
STARLINK-1094 4.0 22:26:31 10° WNW 22:30:17 49° SW 22:30:17 49° SW
NOSS 2-2 (D) 3.3 22:30:16 59° WSW 22:30:47 70° NW 22:34:41 10° NNE
Thor Agena Rocket 3.6 22:27:01 10° NNE 22:32:19 67° ESE 22:33:31 51° SSE
STARLINK-1102 4.4 22:28:47 10° NW 22:32:49 49° NNE 22:34:04 36° ENE
Cosmos 1378 4.1 22:34:05 36° WSW 22:34:47 40° WNW 22:38:20 10° N
STARLINK-1117 4.2 22:31:31 10° WNW 22:35:03 44° WSW 22:35:03 44° WSW
STARLINK-1111 4.2 22:33:45 10° NW 22:37:48 52° NNE 22:38:50 41° ENE
Cosmos 292 Rocket 4.2 22:37:50 45° ESE 22:37:52 45° ESE 22:42:29 10° NNE
Meteor 1-22 Rocket 4.3 22:32:28 10° NNW 22:38:26 76° W 22:40:16 45° S
COSMOS 2455 4.4 22:39:19 19° E 22:39:19 19° E 22:42:59 10° ENE
Okean 1 Rocket 4.5 22:35:16 10° NNW 22:39:10 30° W 22:40:31 25° WSW
BREEZE-M DEB (TANK) 4.3 22:26:09 10° WNW 22:39:39 70° NNE 22:42:01 28° E
STARLINK-1078 4.4 22:36:32 10° WNW 22:39:51 39° WSW 22:39:51 39° WSW
Cosmos 1758 4.1 22:36:46 10° N 22:40:34 39° ENE 22:40:34 39° ENE
Cosmos 2082 Rocket 3.8 22:37:13 10° NW 22:41:44 25° WSW 22:43:49 20° SW
STARLINK-1073 4.1 22:38:42 10° NW 22:42:48 56° NNE 22:43:37 46° ENE
EO 1 Del DPAF 3.2 22:40:29 10° NNE 22:44:01 76° NE 22:44:01 76° NE
ATLAS 3B R/B 4.3 22:39:21 10° NNW 22:45:06 28° NE 22:50:58 10° E
NOSS 3-4 (A) 4.1 22:45:54 33° ESE 22:45:54 33° ESE 22:51:11 10° NE
NOSS 3-4 (C) 4.2 22:46:01 32° ESE 22:46:01 32° ESE 22:51:17 10° NE
CENTAUR R/B 3.7 22:38:37 10° NNW 22:46:26 54° NE 22:52:28 21° ESE
Cosmos 1025 Rocket 3.6 22:47:51 42° E 22:47:51 42° E 22:51:40 10° NNE
STARLINK-1121 4.0 22:43:41 10° NW 22:47:49 60° NNE 22:48:24 53° ENE
Cosmos 1455 Rocket 2.9 22:44:45 10° N 22:49:06 83° W 22:49:22 77° SSW
Terra 3.3 22:48:09 24° WSW 22:49:32 27° W 22:53:36 10° NW
BREEZE-M DEB (TANK) 3.8 22:47:33 28° WSW 22:49:51 85° SSE 23:02:52 10° ENE
ISS -1.4 22:47:27 10° WNW 22:48:30 17° W 22:48:30 17° W
SL-4 R/B 4.1 22:52:55 21° E 22:52:55 21° E 22:54:49 10° ENE
Cosmos 1470 3.0 22:47:31 10° N 22:51:05 58° NE 22:51:05 58° NE
STARLINK-1106 3.8 22:48:38 10° NW 22:52:46 64° NNE 22:53:10 60° ENE
Cosmos 1943 Rocket 2.2 22:50:56 40° SW 22:52:58 79° WNW 22:58:36 10° NNE
Cosmos 2369 Rocket 2.1 22:52:25 53° S 22:53:47 77° ESE 22:59:27 10° NNE
SeaSat 1 2.6 22:51:17 10° NNE 22:56:12 70° WNW 22:57:56 40° SW
STARLINK-1112 3.7 22:53:37 10° NW 22:57:45 69° NNE 22:57:57 68° NE
STARLINK-1128 3.6 22:58:37 10° NW 23:02:45 75° NNE 23:02:45 75° NNE
Cosmos 1726 3.6 23:00:14 10° NNE 23:03:06 29° ENE 23:03:06 29° ENE
Spot 4 3.8 23:04:36 66° SSW 23:05:12 77° WSW 23:10:05 10° NNW
STARLINK-1113 3.7 23:03:34 10° NW 23:07:31 76° NNW 23:07:31 76° NNW
Cosmos 1842 4.3 23:08:00 37° W 23:08:17 38° WNW 23:11:57 10° N
Lacrosse 5 3.7 23:05:07 10° WNW 23:08:03 18° WSW 23:08:03 18° WSW
STARLINK-1119 3.7 23:08:33 10° NW 23:12:18 72° NW 23:12:18 72° NW
ATLAS 2AS CENTAUR R/B 3.1 23:11:15 43° S 23:13:52 62° ESE 23:21:42 10° NE
Cosmos 1536 Rocket 3.5 23:14:55 75° ENE 23:14:55 75° ENE 23:19:07 10° NNE
Cosmos 1417 Rocket 4.4 23:08:30 10° N 23:14:50 87° W 23:16:34 52° S
Cosmos 1242 Rocket 3.4 23:15:39 48° NW 23:15:39 48° NW 23:18:52 10° N
Cosmos 968 Rocket 3.3 23:11:48 10° NNW 23:16:59 81° ENE 23:17:39 67° SE
STARLINK-1114 3.9 23:13:32 10° NW 23:17:05 64° WNW 23:17:05 64° WNW
Cosmos 1503 Rocket 4.3 23:12:27 10° NNW 23:17:42 60° ENE 23:18:46 50° ESE
Meteor 2-8 Rocket 4.4 23:13:01 10° N 23:19:11 82° E 23:20:41 54° SSE
NOSS 3-2 (A) 4.1 23:13:50 10° NW 23:21:27 72° WSW 23:24:27 43° SSE
ALOS 2 2.5 23:21:50 80° E 23:21:53 80° ENE 23:26:17 10° N
STARLINK-1130 (DARKSAT) 4.0 23:18:33 10° WNW 23:21:53 56° WNW 23:21:53 56° WNW
Cosmos 2292 Rocket 4.0 23:25:41 48° ENE 23:25:41 48° ENE 23:28:36 10° NNE
Cosmos 1544 Rocket 4.1 23:21:06 10° NNW 23:25:14 46° W 23:25:14 46° W
ATLAS CENTAUR R/B 2.9 23:27:38 28° ENE 23:27:38 28° ENE 23:30:06 10° NE
STARLINK-1084 4.2 23:23:30 10° WNW 23:26:38 49° WNW 23:26:38 49° WNW
Cosmos 2315 Rocket 4.5 23:22:51 10° N 23:28:51 49° ENE 23:30:38 38° ESE
USA 238 DEB 3.9 23:23:28 10° NW 23:30:37 62° WSW 23:32:36 47° S
USA 238 3.9 23:23:34 10° NW 23:30:43 63° WSW 23:32:44 47° S
Cosmos 1656 Rocket 3.5 23:30:19 64° S 23:31:09 78° ESE 23:36:45 10° NNE
STARLINK-1098 4.4 23:28:29 10° WNW 23:31:25 43° WNW 23:31:25 43° WNW
Cosmos 2263 4.3 23:32:55 49° SW 23:34:24 72° WNW 23:40:01 10° NNE
Cosmos 1354 Rocket 4.0 23:29:13 10° NNW 23:34:32 74° ENE 23:35:20 62° SE
Meteor 2-10 3.7 23:31:40 10° NNW 23:36:45 84° W 23:37:10 75° SSW
Cosmos 1486 Rocket 4.3 23:34:50 10° NNW 23:39:57 50° WSW 23:40:19 49° WSW
Cosmos 1867 3.9 23:35:37 10° NNW 23:41:03 61° NE 23:42:36 43° ESE
Cosmos 1271 Rocket 3.9 23:42:16 36° WNW 23:42:16 36° WNW 23:45:44 10° N
Aureole 3 4.3 23:39:09 10° N 23:41:25 35° NNE 23:41:25 35° NNE
In-Cosmos 22 3.9 23:41:55 70° S 23:42:32 84° E 23:47:51 10° NNE
S3M 4.1 23:37:19 10° NNW 23:43:25 66° W 23:44:50 51° SSW
SL-8 R/B 4.1 23:40:09 10° WNW 23:43:56 51° W 23:43:56 51° W
Cosmos 1707 3.9 23:50:53 35° WNW 23:50:53 35° WNW 23:54:17 10° N
Cosmos 1833 4.0 23:45:11 10° NNW 23:50:50 76° WSW 23:51:34 65° S
Cosmos 1655 Rocket 4.3 23:49:21 43° SW 23:51:10 59° WNW 23:57:21 10° N
Cosmos 1606 Rocket 3.9 23:47:35 10° N 23:51:47 52° ENE 23:51:47 52° ENE
